Weather History for Ludington, MI

Change the Weather History Date:

Thursday, December 20, 2012

  Actual Average Record
Temperature  
Mean Temperature 36 °F -  
Max Temperature 36 °F 33 °F 58 °F (1967)
Min Temperature 35 °F 20 °F -5 °F (1983)
Degree Days  
Heating Degree Days 30    
Moisture  
Dew Point 32 °F    
Average Humidity 88    
Maximum Humidity 89    
Minimum Humidity 81    
Precipitation  
Precipitation 1.16 in - - ()
Sea Level Pressure  
Sea Level Pressure 29.46 in    
Wind  
Wind Speed 12 mph (ENE)    
Max Wind Speed 21 mph    
Max Gust Speed 30 mph    
Visibility 4 miles    
Events Rain , Snow    
Averages and records for this station are not official NWS values.
T = Trace of Precipitation, MM = Missing Value Source: NWS Daily Summary

Daily Weather History Graph

Daily Weather History Graph

Search for Another Location

Airport:

Trip Planner

Search our weather history database for the weather conditions in past years. The results will help you decide how hot, cold, wet, or windy it might be!

Date:

Astronomy

Dec. 20, 2012 Rise Set
Actual Time 8:16 AM EST 5:10 PM EST
Civil Twilight 7:43 AM EST 5:43 PM EST
Nautical Twilight 7:07 AM EST 6:19 PM EST
Astronomical Twilight 6:31 AM EST 6:55 PM EST
Moon 12:38 PM EST (12/20) 12:52 AM EST (12/20)
Length of Visible Light 9h 59m
Length of Day
8h 53m
First Quarter, 55% of the Moon is Illuminated
Dec 20
First Quarter
Dec 28
Full
Jan 4
Last Quarter
Jan 11
New
Jan 18
First Quarter

Hourly Weather History & Observations

Time (EST) Temp. Windchill Dew Point Humidity Pressure Visibility Wind Dir Wind Speed Gust Speed Precip Events Conditions
12:15 AM 35.1 °F 29.3 °F 29.8 °F 81% 30.01 in 10.0 mi East 6.9 mph - N/A   Overcast
12:35 AM 35.1 °F 27.9 °F 30.2 °F 82% 29.99 in 10.0 mi East 9.2 mph - N/A   Overcast
12:55 AM 35.1 °F 30.1 °F 29.7 °F 81% 29.97 in 10.0 mi East 5.8 mph - N/A   Overcast
1:15 AM 35.1 °F 28.6 °F 29.8 °F 81% 29.96 in 10.0 mi East 8.1 mph - N/A   Overcast
1:35 AM 35.1 °F 28.6 °F 29.8 °F 81% 29.94 in 10.0 mi East 8.1 mph - N/A   Scattered Clouds
1:55 AM 35.1 °F 29.3 °F 29.7 °F 81% 29.94 in 10.0 mi ESE 6.9 mph - N/A   Mostly Cloudy
2:35 AM 35.1 °F 29.3 °F 30.4 °F 83% 29.94 in 5.0 mi East 6.9 mph - N/A Snow Light Snow
2:55 AM 35.1 °F 28.6 °F 30.9 °F 85% 29.92 in 7.0 mi East 8.1 mph - N/A Snow Light Snow
3:15 AM 35.1 °F 27.9 °F 31.3 °F 86% 29.89 in 2.5 mi East 9.2 mph - N/A Snow Light Snow
3:35 AM 35.1 °F 27.9 °F 32.0 °F 89% 29.90 in 1.5 mi East 9.2 mph - N/A Snow Light Snow
3:55 AM 35.1 °F 26.9 °F 32.0 °F 89% 29.87 in 1.0 mi East 11.5 mph - N/A Snow Light Snow
4:15 AM 35.1 °F 27.4 °F 32.2 °F 89% 29.85 in 0.8 mi East 10.4 mph - N/A Snow Snow
4:35 AM 35.1 °F 27.9 °F 32.2 °F 89% 29.85 in 1.2 mi East 9.2 mph 16.1 mph N/A Snow Light Snow
4:55 AM 35.1 °F 26.9 °F 32.2 °F 89% 29.84 in 1.2 mi East 11.5 mph - N/A Snow Light Snow
5:14 AM 35.1 °F 27.4 °F 32.2 °F 89% 29.82 in 1.8 mi East 10.4 mph - N/A Snow Light Snow
5:35 AM 35.1 °F 26.9 °F 32.2 °F 89% 29.79 in 1.0 mi East 11.5 mph 17.3 mph 0.01 in Snow Light Snow
5:55 AM 35.1 °F 25.5 °F 32.2 °F 89% 29.75 in 0.5 mi East 15.0 mph - 0.01 in Snow Snow
6:14 AM 35.1 °F 25.5 °F 32.2 °F 89% 29.73 in 1.2 mi East 15.0 mph - N/A Snow Light Snow
6:35 AM 35.1 °F 25.5 °F 32.2 °F 89% 29.71 in 0.8 mi East 15.0 mph 18.4 mph N/A Snow Light Snow
6:55 AM 35.1 °F 25.5 °F 32.2 °F 89% 29.68 in 2.5 mi East 15.0 mph 20.7 mph N/A Snow Light Snow
7:14 AM 35.1 °F 25.2 °F 32.2 °F 89% 29.66 in 3.0 mi East 16.1 mph 24.2 mph N/A Snow Light Snow
7:35 AM 35.1 °F 24.8 °F 32.0 °F 89% 29.63 in 1.0 mi East 17.3 mph 26.5 mph N/A Snow Snow
7:55 AM 35.1 °F 24.5 °F 32.0 °F 89% 29.60 in 1.8 mi East 18.4 mph 24.2 mph 0.02 in Snow Light Snow
8:15 AM 35.1 °F 24.8 °F 32.0 °F 89% 29.58 in 4.0 mi East 17.3 mph 23.0 mph 0.04 in Snow Light Snow
8:35 AM 35.1 °F 23.8 °F 32.0 °F 89% 29.56 in 3.0 mi East 20.7 mph 26.5 mph 0.11 in Snow Light Snow
8:55 AM 35.1 °F 24.1 °F 32.0 °F 89% 29.54 in 2.5 mi East 19.6 mph 25.3 mph 0.18 in Snow Light Snow
9:15 AM 35.1 °F 24.8 °F 32.0 °F 89% 29.53 in 2.0 mi East 17.3 mph 27.6 mph 0.07 in   Overcast
9:35 AM 35.1 °F 24.8 °F 32.0 °F 89% 29.52 in 3.0 mi East 17.3 mph 24.2 mph 0.13 in Snow Light Snow
9:55 AM 35.1 °F 24.5 °F 31.8 °F 88% 29.52 in 2.0 mi East 18.4 mph 24.2 mph 0.17 in Snow Light Snow
10:15 AM 35.1 °F 24.1 °F 31.8 °F 88% 29.49 in 3.0 mi East 19.6 mph 27.6 mph 0.04 in Rain Light Rain
10:35 AM 35.1 °F 24.5 °F 31.8 °F 88% 29.49 in 3.0 mi ESE 18.4 mph 23.0 mph 0.09 in Snow Light Snow
10:55 AM 35.1 °F 24.1 °F 31.8 °F 88% 29.45 in 4.0 mi ESE 19.6 mph 25.3 mph 0.13 in Snow Light Snow
11:15 AM 35.1 °F 24.8 °F 31.8 °F 88% 29.41 in 1.5 mi East 17.3 mph 26.5 mph 0.01 in Snow Light Snow
11:35 AM 35.1 °F 24.5 °F 31.8 °F 88% 29.36 in 5.0 mi East 18.4 mph 28.8 mph 0.02 in Snow Light Snow
11:54 AM 35.4 °F 26.4 °F 32.0 °F 87% 29.39 in 10.0 mi ESE 13.8 mph 29.9 mph 0.02 in   Overcast
12:15 PM 36.5 °F 27.8 °F 32.4 °F 85% 29.39 in 7.0 mi ESE 13.8 mph 21.9 mph 0.02 in Rain Light Rain
12:35 PM 35.1 °F 25.9 °F 31.6 °F 87% 29.36 in 2.5 mi East 13.8 mph 20.7 mph 0.06 in Rain Light Rain
12:54 PM 35.2 °F 25.0 °F 32.0 °F 88% 29.33 in 2.5 mi East 17.3 mph 24.2 mph 0.09 in Rain Light Rain
1:15 PM 35.2 °F 24.7 °F 32.0 °F 88% 29.30 in 1.5 mi East 18.4 mph 25.3 mph 0.02 in Rain Light Rain
1:35 PM 35.4 °F 25.6 °F 32.2 °F 88% 29.28 in 2.0 mi East 16.1 mph 29.9 mph 0.03 in Snow Light Snow
1:55 PM 35.4 °F 25.6 °F 32.0 °F 87% 29.26 in 2.0 mi East 16.1 mph 25.3 mph 0.05 in Rain Light Rain
2:15 PM 35.4 °F 24.3 °F 32.0 °F 87% 29.24 in 2.5 mi East 20.7 mph 26.5 mph 0.04 in Rain Rain
2:35 PM 35.4 °F 25.3 °F 32.2 °F 88% 29.22 in 5.0 mi East 17.3 mph 23.0 mph 0.08 in Rain Light Rain
2:55 PM 36.5 °F 28.2 °F 32.9 °F 87% 29.22 in 2.5 mi ENE 12.7 mph 19.6 mph 0.11 in Rain Rain
3:15 PM 36.5 °F 28.7 °F 32.9 °F 87% 29.21 in 2.0 mi ENE 11.5 mph - 0.04 in Rain Rain
3:35 PM 36.1 °F 30.6 °F 32.9 °F 88% 29.22 in 2.0 mi North 6.9 mph - 0.09 in Rain Rain
3:55 PM 35.1 °F 27.9 °F 32.0 °F 89% 29.20 in 1.2 mi NNE 9.2 mph - 0.14 in Rain Light Rain
4:15 PM 35.1 °F 27.4 °F 32.0 °F 89% 29.19 in 1.2 mi NNE 10.4 mph 16.1 mph 0.04 in Rain Rain
4:35 PM 35.1 °F 27.9 °F 32.2 °F 89% 29.18 in 2.0 mi NNE 9.2 mph - 0.07 in   Overcast
4:55 PM 35.1 °F 28.6 °F 32.2 °F 89% 29.17 in 3.0 mi NNE 8.1 mph - 0.09 in Snow Light Snow
5:15 PM 35.1 °F 26.9 °F 32.2 °F 89% 29.17 in 2.5 mi NNE 11.5 mph 17.3 mph N/A Snow Light Snow
5:35 PM 35.1 °F 25.9 °F 32.2 °F 89% 29.15 in 4.0 mi NNE 13.8 mph 18.4 mph N/A Snow Light Snow
5:55 PM 35.1 °F 25.9 °F 32.2 °F 89% 29.15 in 3.0 mi NNE 13.8 mph 18.4 mph N/A Snow Light Snow
6:15 PM 35.1 °F 27.4 °F 32.2 °F 89% 29.14 in 4.0 mi NNE 10.4 mph 20.7 mph 0.02 in Snow Light Snow
6:35 PM 35.1 °F 27.9 °F 32.2 °F 89% 29.15 in 5.0 mi NNE 9.2 mph 18.4 mph 0.03 in Snow Light Snow
6:55 PM 35.1 °F 26.4 °F 32.2 °F 89% 29.14 in 7.0 mi NE 12.7 mph 18.4 mph 0.04 in Snow Light Snow
7:14 PM 35.1 °F 26.9 °F 32.2 °F 89% 29.14 in 4.0 mi NNE 11.5 mph 19.6 mph 0.02 in   Overcast
7:35 PM 35.1 °F 27.4 °F 32.2 °F 89% 29.14 in 4.0 mi NNE 10.4 mph 18.4 mph 0.03 in   Overcast
7:55 PM 35.1 °F 26.9 °F 32.0 °F 89% 29.14 in 7.0 mi NNE 11.5 mph 21.9 mph 0.04 in   Overcast
8:14 PM 35.1 °F 28.6 °F 32.0 °F 89% 29.14 in 7.0 mi North 8.1 mph 17.3 mph N/A   Overcast
8:35 PM 35.1 °F 26.9 °F 32.0 °F 89% 29.14 in 10.0 mi NNE 11.5 mph 19.6 mph 0.02 in   Overcast
8:55 PM 35.1 °F 28.6 °F 32.0 °F 89% 29.15 in 3.0 mi NNE 8.1 mph - 0.02 in Snow Light Snow
9:14 PM 35.1 °F 27.9 °F 32.0 °F 89% 29.16 in 2.5 mi North 9.2 mph 18.4 mph N/A Snow Light Snow
9:35 PM 35.1 °F 27.9 °F 32.0 °F 89% 29.16 in 3.0 mi North 9.2 mph - N/A Snow Light Snow
9:55 PM 35.1 °F 27.9 °F 32.2 °F 89% 29.17 in 3.0 mi North 9.2 mph - N/A Snow Light Snow
10:15 PM 35.1 °F 27.4 °F 32.2 °F 89% 29.19 in 3.0 mi North 10.4 mph 17.3 mph N/A Snow Light Snow
10:35 PM 35.1 °F 26.9 °F 32.0 °F 89% 29.19 in 2.5 mi North 11.5 mph 18.4 mph N/A Snow Light Snow
10:55 PM 35.1 °F 27.4 °F 32.0 °F 89% 29.20 in 4.0 mi North 10.4 mph 19.6 mph N/A Snow Light Snow
11:15 PM 35.1 °F 25.9 °F 32.0 °F 89% 29.21 in 7.0 mi North 13.8 mph 20.7 mph 0.01 in Snow Light Snow
11:35 PM 35.1 °F 25.9 °F 32.0 °F 89% 29.21 in 7.0 mi North 13.8 mph 21.9 mph 0.03 in   Overcast
11:55 PM 35.1 °F 24.5 °F 32.0 °F 89% 29.22 in 5.0 mi North 18.4 mph 25.3 mph 0.05 in Snow Light Snow